Back to catalog

CZ-8A R/B

AliveLEO
NORAD 68138·ROCKET BODY·🇨🇳 China

Launched Mar 12, 2026 from Wenchang Space Launch Site

Loading…

Next Passes (next 24 hours)

TLE

FreshSource: Space-Track

Epoch: Sep 14, 2026, 14:52 UTC

1 68138U 26047K   26257.61976088 -.00000055  00000-0  53909-4 0  9993
2 68138  49.9538   9.4727 0044843  67.3956 293.1686 14.12258638 26254

Track CZ-8A R/B in real time with AllMySat

Download on the App Store